Weather History for Rhinelander, WI

Change the Weather History Date:

Wednesday, April 17, 2013

  Actual Average Record
Temperature  
Mean Temperature 33 °F 42 °F  
Max Temperature 40 °F 54 °F 80 °F (1964)
Min Temperature 26 °F 31 °F 12 °F (1983)
Degree Days  
Heating Degree Days 32 23  
Month to date heating degree days 571 448  
Since 1 July heating degree days 8300 8243  
Cooling Degree Days 0 0  
Month to date cooling degree days 0 0  
Year to date cooling degree days 0 0  
Moisture  
Dew Point 26 °F    
Average Humidity 69    
Maximum Humidity 84    
Minimum Humidity 54    
Precipitation  
Precipitation 0.02 in 0.08 in 1.46 in (1959)
Month to date precipitation 2.06 1.36  
Year to date precipitation 6.87 4.97  
Snow  
Snow 0.00 in - 0.50 in (2003)
Month to date snowfall 10.6  
Since 1 July snowfall 79.4  
Snow Depth 12.00 in    
Sea Level Pressure  
Sea Level Pressure 30.24 in    
Wind  
Wind Speed 8 mph (ENE)    
Max Wind Speed 20 mph    
Max Gust Speed 24 mph    
Visibility 10 miles    
Events      
T = Trace of Precipitation, MM = Missing Value Source: NWS Daily Summary

Daily Weather History Graph

Daily Weather History Graph

Search for Another Location

Airport:

Trip Planner

Search our weather history database for the weather conditions in past years. The results will help you decide how hot, cold, wet, or windy it might be!

Date:

Astronomy

Apr. 17, 2013 Rise Set
Actual Time 6:08 AM CDT 7:47 PM CDT
Civil Twilight 5:37 AM CDT 8:18 PM CDT
Nautical Twilight 4:59 AM CDT 8:56 PM CDT
Astronomical Twilight 4:18 AM CDT 9:38 PM CDT
Moon 11:16 AM CDT (4/17) 1:31 AM CDT (4/17)
Length of Visible Light 14h 41m
Length of Day
13h 39m
Waxing Crescent, 42% of the Moon is Illuminated
Apr 17
Waxing Crescent
Apr 18
First Quarter
Apr 25
Full
May 2
Last Quarter
May 9
New

Hourly Weather History & Observations

Time (CDT) Temp. Windchill Dew Point Humidity Pressure Visibility Wind Dir Wind Speed Gust Speed Precip Events Conditions
12:53 AM 30.0 °F - 21.9 °F 72% 30.40 in 10.0 mi Calm Calm - N/A   Clear
1:53 AM 28.9 °F 23.9 °F 21.9 °F 75% 30.40 in 10.0 mi NNE 4.6 mph - N/A   Clear
2:53 AM 26.1 °F 20.5 °F 21.0 °F 81% 30.40 in 10.0 mi ENE 4.6 mph - N/A   Clear
3:53 AM 27.0 °F 23.0 °F 21.9 °F 81% 30.41 in 10.0 mi East 3.5 mph - N/A   Clear
4:53 AM 28.0 °F 24.2 °F 23.0 °F 81% 30.40 in 10.0 mi ENE 3.5 mph - N/A   Clear
5:53 AM 27.0 °F 23.0 °F 23.0 °F 85% 30.39 in 10.0 mi NE 3.5 mph - N/A   Clear
6:53 AM 27.0 °F 21.6 °F 23.0 °F 85% 30.37 in 10.0 mi NE 4.6 mph - N/A   Clear
7:53 AM 30.9 °F 24.3 °F 25.0 °F 79% 30.40 in 10.0 mi East 6.9 mph - N/A   Clear
9:53 AM 35.1 °F 27.9 °F 26.1 °F 70% 30.38 in 10.0 mi East 9.2 mph - N/A   Overcast
10:53 AM 37.9 °F 32.7 °F 27.0 °F 65% 30.35 in 10.0 mi East 6.9 mph - N/A   Scattered Clouds
11:53 AM 39.0 °F 32.8 °F 25.0 °F 57% 30.30 in 10.0 mi East 9.2 mph - N/A   Overcast
12:53 PM 37.9 °F 32.7 °F 25.0 °F 60% 30.30 in 10.0 mi NE 6.9 mph - N/A   Overcast
1:53 PM 39.0 °F 36.8 °F 25.0 °F 57% 30.31 in 10.0 mi East 3.5 mph - N/A   Overcast
2:53 PM 39.0 °F 32.3 °F 26.1 °F 60% 30.27 in 10.0 mi ENE 10.4 mph - N/A   Overcast
3:53 PM 39.0 °F 30.3 °F 26.1 °F 60% 30.16 in 10.0 mi East 16.1 mph - N/A   Scattered Clouds
4:53 PM 39.9 °F 33.4 °F 27.0 °F 60% 30.17 in 10.0 mi ENE 10.4 mph 17.3 mph N/A   Overcast
5:53 PM 39.9 °F 34.5 °F 27.0 °F 60% 30.17 in 10.0 mi East 8.1 mph - N/A   Overcast
6:53 PM 39.0 °F 30.6 °F 25.0 °F 57% 30.11 in 10.0 mi East 15.0 mph - N/A   Overcast
7:53 PM 37.9 °F 30.5 °F 26.1 °F 62% 30.12 in 10.0 mi East 11.5 mph - N/A   Overcast
8:53 PM 36.0 °F 29.0 °F 30.0 °F 79% 30.08 in 8.0 mi ENE 9.2 mph 19.6 mph N/A   Overcast
9:44 PM 35.6 °F 29.2 °F 30.2 °F 81% 30.00 in 10.0 mi NE 8.1 mph - N/A   Overcast
9:53 PM 36.0 °F 30.3 °F 30.0 °F 79% 30.05 in 10.0 mi NE 6.9 mph - N/A   Overcast
10:53 PM 36.0 °F 30.3 °F 30.0 °F 79% 30.05 in 9.0 mi ENE 6.9 mph - N/A   Overcast
11:31 PM 35.6 °F 28.0 °F 30.2 °F 81% 29.97 in 6.0 mi ENE 10.4 mph - N/A   Haze
11:53 PM 35.1 °F 28.6 °F 30.9 °F 85% 30.01 in 5.0 mi ENE 8.1 mph - N/A   Overcast